Regional Weather Roundup
Issued by NWS

Home | Current Version | Previous Version | Graphics & Text | Print | Product List | Glossary On
Versions: 1 2 3 4 5 6 7 8 9 10 11 12 13 14 15 16 17 18 19 20 21 22 23 24 25 26 27 28 29 30 31 32 33 34 35 36 37 38 39 40 41 42 43 44 45 46 47 48 49 50
000
ASUS44 KMEG 272310
RWRTN
TENNESSEE HOURLY STATE WEATHER ROUNDUP
NATIONAL WEATHER SERVICE MEMPHIS TN
600 PM CDT MON JUL 27 2015

TNZ002-004-019-021-049-052-054-088>092-280000-
WEST TENNESSEE

CITY           SKY/WX    TMP DP  RH WIND       PRES   REMARKS
MEMPHIS INTL   MOSUNNY   94  72  48 SW9       29.92F HX 102
NWS MEMPHIS      N/A     95 N/A N/A MISG        N/A
JACKSON        SUNNY     94  74  52 SW5       29.92F HX 104
DYERSBURG        N/A    N/A N/A N/A MISG        N/A
PARIS          SUNNY     91  75  59 CALM      29.92F HX 102
LEXINGTON      MOSUNNY   93  73  52 SW6       29.92S HX 102
$$

TNZ008-025-027-028-033-062-065-066-280000-
NORTH MIDDLE TENNESSEE

CITY           SKY/WX    TMP DP  RH WIND       PRES   REMARKS
NASHVILLE      PTSUNNY   92  70  48 VRB6      29.93F HX  97
CLARKSVILLE    MOSUNNY   90  73  57 W5        29.92S HX  98
SMYRNA         MOSUNNY   96  74  49 SW7       29.93F HX 106
COOKEVILLE     SUNNY     91  77  62 CALM      29.96F HX 105
CROSSVILLE     MOSUNNY   86  69  56 NW5       30.02F HX  90
$$

TNZ061-075-076-078-094-096-097-280000-
SOUTH MIDDLE TENNESSEE

CITY           SKY/WX    TMP DP  RH WIND       PRES   REMARKS
FAYETTEVILLE   SUNNY     91  66  43 NW3       29.96F HX  94
TULLAHOMA      SUNNY     91  70  49 CALM      29.97F HX  97
WINCHESTER     SUNNY     91  70  49 CALM      29.96F HX  97
MCMINNVILLE    SUNNY     91  75  59 W3        29.96F HX 102
COLUMBIA       MOSUNNY   97  73  46 NW5       29.92S HX 107
SHELBYVILLE    SUNNY     93  73  52 CALM      29.95S HX 102
$$

TNZ017-018-042-046-047-280000-
NORTHEAST TENNESSEE

CITY           SKY/WX    TMP DP  RH WIND       PRES   REMARKS
TRI CITIES     MOSUNNY   83  72  69 E3        30.00F
ELIZABETHTON   PTCLDY    82  70  65 CALM      30.01S
$$

TNZ012-013-036-069-073-074-280000-
CENTRAL EAST TENNESSEE

CITY           SKY/WX    TMP DP  RH WIND       PRES   REMARKS
KNOXVILLE      PTSUNNY   89  71  55 NW5       29.95F HX  95
OAK RIDGE      CLOUDY    88  73  61 VRB3      29.97S HX  95
GATLINBURG       N/A     88  70  55 W3        29.96S HX  92
MORRISTOWN     CLEAR     82  72  69 E6        29.99F
$$

TNZ083-085-099-280000-
SOUTHEAST TENNESSEE

CITY           SKY/WX    TMP DP  RH WIND       PRES   REMARKS
CHATTANOOGA    PTSUNNY   92  71  50 W3        29.95R HX  98
$$

SKY/WX REPORTED AS FAIR MEANS FEW OR NO CLOUDS BELOW
12 THOUSAND FEET.



USA.gov is the U.S. government's official web portal to all federal, state and local government web resources and services.